Location: Karcze
(52.0945°N, 22.4786°E)
Time: 04:00:19
(UTC+00:00)

Transit 2A Rocket - Pass Details

Date: 06 August 2021
Orbit: 586 x 916 km, 66.7° (Epoch: 21 September)

Event Time Altitude Azimuth Distance (km) Brightness Sun altitude
Rises 20:38:41 0° 316° (NW) 3,285 9.8 -16.9°
Reaches altitude 10° 20:41:15 10° 306° (NW) 2,404 8.6 -17.1°
Maximum altitude 20:46:06 32° 246° (WSW) 1,441 6.4 -17.4°
Enters shadow 20:49:28 18° 197° (SSW) 2,003 6.7 -17.7°
Drops below altitude 10° 20:51:14 10° 186° (S) 2,548 - -17.8°
Sets 20:54:02 0° 176° (S) 3,512 - -18.0°
